RORVIK/RYUM current weather conditions

sailwx.info

Wind from 090 at 12 knots

Air temperature -1.0° C
Visibility: greater than 1.1 NM
Dewpoint -4.0° C
Present weather: Light snow.

Last reported at 2017-Feb-22 09:20 UTC.
Time now 2017-Feb-22 10:57 UTC

Location: N 64°50' E 011°08'.
View on Google Maps.

See reports from other nearby stations

  
Tides and Currents Weather Stations Pressure Air Temp Water Temp Dewpoint Dewpoint Depression Visibility Wind Speed Wind Dir Waves Ship Positions
date/time (UTC)wind fromknots sea level pressurealtimeterstation pressurevisibilityair tempwater tempwave heightnotes
2017-Feb-22 09:20 090 12 1.1-1.0 Light snow.
2017-Feb-22 08:50 090 9 1.1-1.0 Light snow.
2017-Feb-22 08:20 090 11 1.6-1.0 Light snow.
2017-Feb-22 07:50 100 12 5.4-1.0 Light snow.
2017-Feb-22 06:50 080 13 5.4-1.0 Light snow showers.
2017-Feb-22 06:20 100 13 5.4-1.0 Light snow showers.
2017-Feb-22 05:50 090 13 5.4-1.0
2017-Feb-22 05:20 100 11 5.4-1.0
2017-Feb-22 04:50 100 13 5.4-1.0
2017-Feb-21 20:50 090 7 5.4-3.0
2017-Feb-21 20:20 090 8 5.4-3.0
2017-Feb-21 19:50 090 6 5.4-3.0
2017-Feb-21 19:20 100 7 5.4-3.0
2017-Feb-21 18:50 090 6 5.4-3.0
2017-Feb-21 18:20 090 8 5.4-3.0
2017-Feb-21 17:20 090 6 5.4-2.0
2017-Feb-21 16:50 090 6 5.4-2.0
2017-Feb-21 16:20 110 6 5.4-2.0
2017-Feb-21 15:50 110 6 5.4-2.0
2017-Feb-21 14:50 110 6 5.4-2.0
2017-Feb-21 13:50 110 6 5.4-1.0
2017-Feb-21 13:20 120 6 5.4-1.0
2017-Feb-21 12:50 110 6 5.4-1.0
2017-Feb-21 12:20 110 5 5.4-1.0
2017-Feb-21 11:50 100 2 5.4-1.0
2017-Feb-21 11:20 100 5 5.4-1.0
2017-Feb-21 10:50 100 4 5.4-1.0
2017-Feb-21 10:20 100 4 5.4-2.0
2017-Feb-21 09:50 090 5 5.4-2.0
2017-Feb-21 09:20 110 5 5.4-2.0
2017-Feb-21 08:50 5.4-4.0
2017-Feb-21 07:50 020 4 5.4-6.0
2017-Feb-21 07:20 030 4 5.4-6.0
2017-Feb-21 06:50 020 2 5.4-6.0
2017-Feb-21 06:20 050 2 5.4-6.0
2017-Feb-21 05:50 050 2 5.4-6.0
2017-Feb-21 05:20 030 4 5.4-6.0
2017-Feb-21 04:50 040 2 5.4-6.0
2017-Feb-20 20:50 020 1 5.4-4.0
2017-Feb-20 20:20 360 1 5.4-4.0
2017-Feb-20 19:50 060 1 5.4-4.0
2017-Feb-20 16:50 090 2 5.4-2.0
2017-Feb-20 16:20 070 4 5.4-1.0
2017-Feb-20 15:50 090 2 5.4-1.0
2017-Feb-20 15:20 100 4 5.4-0.0
2017-Feb-20 14:20 040 4 5.4-0.0
2017-Feb-20 13:50 030 6 5.4 1.0
2017-Feb-20 13:20 020 5 5.4 1.0
2017-Feb-20 10:20 5.4-0.0